When you browse on this site, cookies collect data to enhance your experience and personalize the content and advertising you see.
Visit our Privacy Policy to learn more. By continuing to use the site, you agree to this use of cookies and data.
  • In Hungary
  • List of Countries
  • For 7 days
  • Water Temperature
  • Weather Map
  • News
  • Weather Widgets
  • user-avatar
    Login

    Hourly Weather Perchtoldsdorf

    Today, 10 April, Friday

    Time Temperature Precipitation Wind Pressure Humidity
    00:00 +13°C° 0 mm 2 mps 743 mmHg 61%
    01:00 +13°C° 0 mm 2 mps 743 mmHg 65%
    02:00 +12°C° 0 mm 2 mps 743 mmHg 69%
    03:00 +10°C° 0 mm 2 mps 743 mmHg 73%
    04:00 +10°C° 0 mm 2 mps 743 mmHg 78%
    05:00 +10°C° 0 mm 2 mps 743 mmHg 76%
    06:00 +12°C° 0 mm 2 mps 743 mmHg 75%
    07:00 +12°C° 0 mm 2 mps 744 mmHg 74%
    08:00 +14°C° 0 mm 2 mps 744 mmHg 67%
    09:00 +15°C° 0 mm 2 mps 744 mmHg 60%
    10:00 +17°C° 0 mm 2 mps 744 mmHg 54%
    11:00 +17°C° 0 mm 2 mps 743 mmHg 51%
    12:00 +18°C° 0 mm 3 mps 743 mmHg 49%
    13:00 +19°C° 0 mm 3 mps 743 mmHg 47%
    14:00 +19°C° 0 mm 3 mps 743 mmHg 47%
    15:00 +19°C° 0 mm 3 mps 742 mmHg 47%
    16:00 +18°C° 0 mm 3 mps 742 mmHg 47%
    17:00 +17°C° 0 mm 2 mps 742 mmHg 52%
    18:00 +15°C° 0 mm 2 mps 742 mmHg 57%
    19:00 +14°C° 0 mm 1 mps 742 mmHg 62%
    20:00 +13°C° 0 mm 1 mps 742 mmHg 63%
    21:00 +13°C° 0 mm 1 mps 742 mmHg 65%
    22:00 +11°C° 0 mm 0 mps 743 mmHg 66%
    23:00 +11°C° 0 mm 0 mps 743 mmHg 66%

    Tomorrow, 11 April, Saturday

    Time Temperature Precipitation Wind Pressure Humidity
    00:00 +11°C° 0 mm 0 mps 743 mmHg 66%
    01:00 +11°C° 0 mm 0 mps 743 mmHg 66%
    02:00 +11°C° 0 mm 1 mps 743 mmHg 66%
    03:00 +11°C° 0 mm 1 mps 743 mmHg 66%
    04:00 +11°C° 0 mm 1 mps 743 mmHg 67%
    05:00 +11°C° 0 mm 1 mps 743 mmHg 65%
    06:00 +11°C° 0 mm 1 mps 743 mmHg 63%
    07:00 +11°C° 0 mm 1 mps 744 mmHg 61%
    08:00 +12°C° 0 mm 1 mps 744 mmHg 56%
    09:00 +14°C° 0 mm 1 mps 744 mmHg 51%
    10:00 +15°C° 0 mm 1 mps 744 mmHg 46%
    11:00 +16°C° 0 mm 2 mps 744 mmHg 44%
    12:00 +17°C° 0 mm 2 mps 744 mmHg 42%
    13:00 +18°C° 0 mm 2 mps 744 mmHg 41%
    14:00 +18°C° 0 mm 2 mps 743 mmHg 42%
    15:00 +18°C° 0 mm 2 mps 743 mmHg 43%
    16:00 +18°C° 0 mm 2 mps 742 mmHg 44%
    17:00 +16°C° 0 mm 2 mps 742 mmHg 48%
    18:00 +15°C° 0 mm 2 mps 743 mmHg 52%
    19:00 +13°C° 0 mm 2 mps 743 mmHg 56%
    20:00 +12°C° 0 mm 1 mps 743 mmHg 57%
    21:00 +12°C° 0 mm 1 mps 743 mmHg 58%
    22:00 +11°C° 0 mm 1 mps 743 mmHg 59%
    23:00 +11°C° 0 mm 1 mps 743 mmHg 60%

    Day after tomorrow, 12 April, Sunday

    Time Temperature Precipitation Wind Pressure Humidity
    00:00 +9°C° 0 mm 0 mps 743 mmHg 62%
    01:00 +9°C° 0 mm 0 mps 743 mmHg 63%
    02:00 +8°C° 0 mm 0 mps 743 mmHg 65%
    03:00 +8°C° 0 mm 0 mps 742 mmHg 66%
    04:00 +8°C° 0 mm 0 mps 742 mmHg 68%
    05:00 +10°C° 0 mm 1 mps 742 mmHg 66%
    06:00 +10°C° 0 mm 1 mps 742 mmHg 64%
    07:00 +11°C° 0 mm 1 mps 742 mmHg 62%
    08:00 +13°C° 0 mm 1 mps 742 mmHg 59%
    09:00 +15°C° 0 mm 2 mps 741 mmHg 56%
    10:00 +16°C° 0 mm 2 mps 741 mmHg 52%
    11:00 +18°C° 0 mm 3 mps 740 mmHg 51%
    12:00 +19°C° 0 mm 3 mps 740 mmHg 49%
    13:00 +20°C° 0 mm 3 mps 740 mmHg 48%
    14:00 +20°C° 0 mm 4 mps 739 mmHg 48%
    15:00 +21°C° 0 mm 4 mps 738 mmHg 49%
    16:00 +21°C° 0 mm 4 mps 738 mmHg 49%
    17:00 +19°C° 0 mm 4 mps 737 mmHg 54%
    18:00 +18°C° 0 mm 4 mps 737 mmHg 59%
    19:00 +15°C° 0 mm 4 mps 736 mmHg 64%
    20:00 +16°C° 0 mm 3 mps 736 mmHg 66%
    21:00 +14°C° 0 mm 3 mps 736 mmHg 69%
    22:00 +13°C° 0 mm 3 mps 736 mmHg 71%
    23:00 +13°C° 0 mm 2 mps 736 mmHg 72%

    13 April, Monday

    Time Temperature Precipitation Wind Pressure Humidity
    00:00 +13°C° 0 mm 2 mps 735 mmHg 74%
    01:00 +12°C° 0 mm 1 mps 735 mmHg 75%
    02:00 +12°C° 0 mm 1 mps 735 mmHg 76%
    03:00 +12°C° 0 mm 1 mps 735 mmHg 77%
    04:00 +12°C° 0 mm 1 mps 734 mmHg 78%
    05:00 +12°C° 0 mm 1 mps 734 mmHg 77%
    06:00 +13°C° 0 mm 1 mps 734 mmHg 76%
    07:00 +13°C° 0 mm 1 mps 734 mmHg 74%
    08:00 +15°C° 0 mm 1 mps 734 mmHg 67%
    09:00 +18°C° 0 mm 1 mps 734 mmHg 60%
    10:00 +19°C° 0 mm 1 mps 734 mmHg 53%
    11:00 +20°C° 0.1 mm 1 mps 734 mmHg 50%
    12:00 +20°C° 0.1 mm 2 mps 733 mmHg 46%
    13:00 +21°C° 0.1 mm 2 mps 733 mmHg 42%
    14:00 +21°C° 0.1 mm 2 mps 733 mmHg 45%
    15:00 +20°C° 0.1 mm 2 mps 733 mmHg 48%
    16:00 +20°C° 0.1 mm 3 mps 732 mmHg 50%
    17:00 +18°C° 0.2 mm 3 mps 732 mmHg 56%
    18:00 +17°C° 0.2 mm 4 mps 732 mmHg 61%
    19:00 +14°C° 0.2 mm 5 mps 732 mmHg 67%
    20:00 +14°C° 0 mm 5 mps 732 mmHg 67%
    21:00 +13°C° 0 mm 4 mps 732 mmHg 68%
    22:00 +13°C° 0 mm 4 mps 733 mmHg 69%
    23:00 +12°C° 0.2 mm 3 mps 733 mmHg 73%

    14 April, Tuesday

    Time Temperature Precipitation Wind Pressure Humidity
    00:00 +12°C° 0.2 mm 3 mps 733 mmHg 78%
    01:00 +11°C° 0.2 mm 3 mps 733 mmHg 82%
    02:00 +11°C° 0.5 mm 4 mps 733 mmHg 83%
    03:00 +10°C° 0.5 mm 4 mps 733 mmHg 84%
    04:00 +8°C° 0.5 mm 5 mps 734 mmHg 85%
    05:00 +7°C° 1 mm 5 mps 734 mmHg 83%
    06:00 +6°C° 1 mm 5 mps 735 mmHg 81%
    07:00 +5°C° 1 mm 5 mps 736 mmHg 79%
    08:00 +5°C° 0.1 mm 5 mps 736 mmHg 71%
    09:00 +5°C° 0.1 mm 5 mps 737 mmHg 63%
    10:00 +6°C° 0.1 mm 5 mps 738 mmHg 54%
    11:00 +7°C° 0 mm 5 mps 738 mmHg 47%
    12:00 +8°C° 0 mm 5 mps 738 mmHg 40%
    13:00 +10°C° 0 mm 4 mps 738 mmHg 33%
    14:00 +10°C° 0 mm 4 mps 738 mmHg 33%
    15:00 +10°C° 0 mm 4 mps 738 mmHg 33%
    16:00 +10°C° 0 mm 4 mps 738 mmHg 34%
    17:00 +8°C° 0 mm 3 mps 738 mmHg 37%
    18:00 +7°C° 0 mm 2 mps 739 mmHg 41%
    19:00 +6°C° 0 mm 2 mps 739 mmHg 44%
    20:00 +5°C° 0 mm 2 mps 739 mmHg 45%
    21:00 +4°C° 0 mm 2 mps 740 mmHg 46%
    22:00 +5°C° 0 mm 1 mps 740 mmHg 47%
    23:00 +4°C° 0 mm 2 mps 740 mmHg 49%

    15 April, Wednesday

    Time Temperature Precipitation Wind Pressure Humidity
    00:00 +3°C° 0 mm 2 mps 740 mmHg 50%
    01:00 +3°C° 0 mm 2 mps 740 mmHg 52%
    02:00 +2°C° 0 mm 2 mps 740 mmHg 53%
    03:00 +2°C° 0 mm 2 mps 740 mmHg 54%
    04:00 +2°C° 0 mm 2 mps 739 mmHg 55%
    05:00 +2°C° 0 mm 2 mps 739 mmHg 54%
    06:00 +2°C° 0 mm 3 mps 739 mmHg 52%
    07:00 +3°C° 0 mm 3 mps 739 mmHg 51%
    08:00 +5°C° 0 mm 4 mps 739 mmHg 50%
    09:00 +6°C° 0 mm 4 mps 739 mmHg 50%
    10:00 +8°C° 0 mm 5 mps 739 mmHg 49%
    11:00 +9°C° 0 mm 5 mps 739 mmHg 48%
    12:00 +10°C° 0 mm 5 mps 739 mmHg 47%
    13:00 +12°C° 0 mm 5 mps 739 mmHg 47%
    14:00 +12°C° 0 mm 5 mps 738 mmHg 47%
    15:00 +12°C° 0 mm 5 mps 738 mmHg 47%
    16:00 +12°C° 0 mm 5 mps 738 mmHg 48%
    17:00 +10°C° 0 mm 5 mps 738 mmHg 52%
    18:00 +10°C° 0 mm 4 mps 738 mmHg 56%
    19:00 +7°C° 0 mm 4 mps 738 mmHg 60%
    20:00 +7°C° 0 mm 4 mps 738 mmHg 62%
    21:00 +7°C° 0 mm 3 mps 738 mmHg 65%
    22:00 +5°C° 0 mm 3 mps 738 mmHg 67%
    23:00 +5°C° 0 mm 3 mps 738 mmHg 67%
    Show more